IRIS-F3

operational
NORAD ID: 62619 Int'l Des: 2025-009 Owner: NCKU Country: TW
LEOCIRCULARRETROGRADESSO

IRIS-F3について

説明を読み込み中...

リアルタイム位置

3D地球を読み込み中...

次回通過

高度履歴

Altitude vs Time

uPlot chart will show altitude changes over time

軌道要素

1 62619U 25009L 26062.17104222 .00019901 00000-0 80198-3 0 9994
2 62619 97.4108 143.9479 0005604 345.0180 15.0891 15.24862121 62653
Epoch: Mar 3, 2026 • Age: 29 hours

現在のステータス

高度 503.5 km
速度 7.61 km/s
衛星直下点 -25.59°S, 90.03°E
打ち上げ日 Jan 14, 2025
運用期間 1.1 years
タイプ other

技術仕様

分類 Payload
質量 4.00 kg
乾燥質量 4.00 kg
総質量 4.00 kg
長さ 0.30 m
直径 0.10 m
スパン 0.30 m
形状 Box
製造者 NCKU
バスタイプ Cubesat 3U
フェーズステータス In Orbit
所有者/国 NCKU/TW

大規模コンステレーション

Loading constellations...